CW4778 Auckland NZ current weather conditions

sailwx.info

Wind from 258

Air temperature 9.4° C
Dewpoint 7.4° C

Last reported at 2014-Oct-25 10:48 UTC.
Time now 2014-Oct-25 11:17 UTC

Location: S 36°52' E 174°44'.
View on Google Maps.

See reports from other nearby stations

  
Tides and Currents Weather Stations Pressure Air Temp Water Temp Dewpoint Dewpoint Depression Visibility Wind Speed Wind Dir Waves Ship Positions
date/time (UTC)wind fromknots sea level pressurealtimeterstation pressurevisibilityair tempwater tempwave heightnotes
2014-Oct-25 10:48 258 9.4
2014-Oct-25 10:38 257 9.4
2014-Oct-25 10:28 257 8.9
2014-Oct-25 10:18 256 8.9
2014-Oct-25 10:08 256 8.9
2014-Oct-25 09:58 255 8.9
2014-Oct-25 09:48 258 8.9
2014-Oct-25 09:38 256 9.4
2014-Oct-25 09:28 252 9.4
2014-Oct-25 09:18 253 9.4
2014-Oct-25 09:08 254 9.4
2014-Oct-25 08:58 252 9.4
2014-Oct-25 08:48 254 0 gusting 2 9.4
2014-Oct-25 08:38 255 10.0
2014-Oct-25 08:28 254 10.0
2014-Oct-25 08:18 254 10.0
2014-Oct-25 08:08 244 10.6
2014-Oct-25 07:58 226 0 gusting 5 11.1
2014-Oct-25 07:48 240 1 gusting 7 11.1
2014-Oct-25 07:38 222 11.1
2014-Oct-25 07:28 236 0 gusting 4 11.1
2014-Oct-25 07:18 229 11.1
2014-Oct-25 07:08 228 0 gusting 7 11.7
2014-Oct-25 06:58 241 11.7
2014-Oct-25 06:48 234 4 gusting 10 12.2
2014-Oct-25 06:38 213 1 gusting 8 12.2
2014-Oct-25 06:28 222 6 gusting 10 12.2
2014-Oct-25 06:18 197 4 gusting 11 12.8
2014-Oct-25 06:08 214 6 gusting 13 12.8
2014-Oct-25 05:58 212 6 gusting 13 12.8
2014-Oct-25 05:48 219 4 gusting 13 13.3
2014-Oct-25 05:38 220 6 gusting 13 13.3
2014-Oct-25 05:28 193 6 gusting 13 13.3
2014-Oct-25 05:18 220 4 gusting 14 13.9
2014-Oct-25 05:08 188 6 gusting 10 14.4
2014-Oct-25 04:58 164 5 gusting 14 14.4
2014-Oct-25 04:48 211 4 gusting 13 14.4
2014-Oct-25 04:38 279 6 gusting 12 14.4
2014-Oct-25 04:28 230 6 gusting 11 15.0
2014-Oct-25 04:18 225 6 gusting 11 15.0
2014-Oct-25 04:08 181 7 gusting 12 15.0
2014-Oct-25 03:58 207 6 gusting 10 15.0
2014-Oct-25 03:48 217 6 gusting 12 15.6
2014-Oct-25 03:38 181 5 gusting 11 15.6
2014-Oct-25 03:28 204 8 gusting 12 15.6
2014-Oct-25 03:18 206 5 gusting 8 16.1
2014-Oct-25 03:08 152 4 gusting 8 15.6
2014-Oct-25 02:58 136 5 gusting 8 16.7
2014-Oct-25 02:48 142 6 gusting 12 16.7
2014-Oct-25 02:38 193 5 gusting 11 16.7
2014-Oct-25 02:28 167 2 gusting 10 16.7
2014-Oct-25 02:18 245 3 gusting 10 16.7
2014-Oct-25 02:08 193 5 gusting 11 16.1
2014-Oct-25 01:58 162 2 gusting 11 16.7
2014-Oct-25 01:48 237 2 gusting 8 17.2
2014-Oct-25 01:38 131 5 gusting 13 16.7
2014-Oct-25 01:28 176 5 gusting 10 16.7
2014-Oct-25 01:18 221 6 gusting 8 17.2
2014-Oct-25 01:08 187 5 gusting 12 16.7
2014-Oct-25 00:58 173 5 gusting 8 16.7
2014-Oct-25 00:48 172 6 gusting 10 16.7
2014-Oct-25 00:38 187 2 gusting 12 16.1
2014-Oct-25 00:28 182 6 gusting 11 16.7
2014-Oct-25 00:18 227 5 gusting 11 16.7
2014-Oct-25 00:08 113 4 gusting 7 16.7
2014-Oct-24 23:58 190 5 gusting 7 16.1
2014-Oct-24 23:48 214 4 gusting 11 15.6
2014-Oct-24 23:38 269 6 gusting 10 16.1
2014-Oct-24 23:28 193 2 gusting 8 16.1
2014-Oct-24 23:18 181 3 gusting 8 16.7
2014-Oct-24 23:08 279 0 gusting 10 16.1
2014-Oct-24 22:58 113 4 gusting 8 15.6
2014-Oct-24 22:48 109 1 gusting 11 16.1
2014-Oct-24 22:38 196 5 gusting 8 15.0
2014-Oct-24 22:28 182 5 gusting 8 15.0
2014-Oct-24 22:18 153 5 gusting 10 15.0
2014-Oct-24 22:08 186 6 gusting 10 15.6
2014-Oct-24 21:58 143 6 gusting 12 14.4
2014-Oct-24 21:48 177 5 gusting 11 15.0
2014-Oct-24 21:38 202 4 gusting 11 14.4
2014-Oct-24 21:28 167 1 gusting 8 14.4
2014-Oct-24 21:18 190 5 gusting 11 13.9
2014-Oct-24 21:08 188 5 gusting 7 13.3
2014-Oct-24 20:58 198 4 gusting 7 13.9
2014-Oct-24 20:48 163 5 gusting 8 12.8
2014-Oct-24 20:38 176 1 gusting 6 13.3
2014-Oct-24 20:28 169 5 gusting 10 12.2
2014-Oct-24 20:18 147 1 gusting 7 12.8
2014-Oct-24 20:08 197 4 gusting 6 12.2
2014-Oct-24 19:58 150 4 gusting 8 11.1
2014-Oct-24 19:48 198 2 gusting 6 11.1
2014-Oct-24 19:38 127 2 gusting 6 11.1
2014-Oct-24 19:28 192 0 gusting 6 10.6
2014-Oct-24 19:18 152 2 gusting 7 9.4
2014-Oct-24 19:08 169 2 gusting 7 8.9
2014-Oct-24 18:58 187 3 gusting 6 8.3
2014-Oct-24 18:48 148 5 gusting 10 7.8
2014-Oct-24 18:38 163 4 gusting 6 7.8
2014-Oct-24 18:28 188 1 gusting 7 7.2
2014-Oct-24 18:18 173 3 gusting 8 6.7
2014-Oct-24 18:08 163 2 gusting 6 6.1
2014-Oct-24 17:58 217 6.1
2014-Oct-24 17:48 181 0 gusting 6 5.6
2014-Oct-24 17:38 172 1 gusting 5 4.4
2014-Oct-24 17:28 201 5.0
2014-Oct-24 17:18 201 5.0
2014-Oct-24 17:08 186 0 gusting 4 5.0
2014-Oct-24 16:58 190 5.6
2014-Oct-24 16:48 184 0 gusting 1 5.6
2014-Oct-24 16:38 183 5.0
2014-Oct-24 16:28 187 5.0
2014-Oct-24 16:18 188 4.4
2014-Oct-24 16:08 189 4.4
2014-Oct-24 15:58 190 3.9
2014-Oct-24 15:48 190 3.9
2014-Oct-24 15:38 189 4.4
2014-Oct-24 15:28 189 4.4
2014-Oct-24 15:18 191 4.4
2014-Oct-24 15:08 187 5.0
2014-Oct-24 14:58 180 5.6
2014-Oct-24 14:48 180 5.6
2014-Oct-24 14:18 188 6.1
2014-Oct-24 14:08 183 6.1
2014-Oct-24 13:58 156 5.6
2014-Oct-24 13:48 154 6.1
2014-Oct-24 13:38 155 6.1
2014-Oct-24 13:28 156 6.7
2014-Oct-24 13:18 153 7.2
2014-Oct-24 13:08 154 7.2
2014-Oct-24 12:58 181 0 gusting 4 7.8
2014-Oct-24 12:48 151 7.8
2014-Oct-24 12:38 145 7.8
2014-Oct-24 12:28 164 0 gusting 4 8.3
2014-Oct-24 12:18 140 8.3
2014-Oct-24 12:08 141 1 gusting 6 8.9
2014-Oct-24 11:58 142 1 gusting 6 9.4
2014-Oct-24 11:48 142 3 gusting 11 9.4
2014-Oct-24 11:38 141 2 gusting 8 10.0
2014-Oct-24 11:28 152 4 gusting 11 10.0
2014-Oct-24 11:18 171 6 gusting 12 10.6
2014-Oct-24 11:08 186 4 gusting 13 10.6
2014-Oct-24 10:58 148 4 gusting 13 10.6
2014-Oct-24 10:48 141 6 gusting 12 10.6
2014-Oct-24 10:38 145 4 gusting 10 10.6
2014-Oct-24 10:28 146 3 gusting 7 10.6
2014-Oct-24 10:18 153 4 gusting 8 11.1
2014-Oct-24 10:08 125 0 gusting 8 11.1
2014-Oct-24 09:58 188 5 gusting 13 11.7
2014-Oct-24 09:48 169 2 gusting 18 11.7
2014-Oct-24 09:38 170 6 gusting 12 11.7
2014-Oct-24 09:28 204 4 gusting 8 11.7
2014-Oct-24 09:18 217 3 gusting 7 11.7
2014-Oct-24 09:08 230 1 gusting 8 11.7
2014-Oct-24 08:58 211 4 gusting 10 12.2
2014-Oct-24 08:48 189 6 gusting 17 12.2
2014-Oct-24 08:38 214 5 gusting 19 12.2
2014-Oct-24 08:28 219 6 gusting 18 12.2
2014-Oct-24 08:18 177 7 gusting 13 12.2
2014-Oct-24 08:08 161 1 gusting 13 11.7
2014-Oct-24 07:58 204 6 gusting 13 12.2
2014-Oct-24 07:48 207 4 gusting 12 12.2
2014-Oct-24 07:38 228 6 gusting 17 12.2
2014-Oct-24 07:28 202 5 gusting 14 12.2
2014-Oct-24 07:18 235 6 gusting 13 12.2
2014-Oct-24 07:08 224 6 gusting 13 12.8
2014-Oct-24 06:58 202 7 gusting 13 12.8
2014-Oct-24 06:48 216 4 gusting 14 12.8
2014-Oct-24 06:38 193 8 gusting 13 12.8
2014-Oct-24 06:28 210 4 gusting 14 12.8
2014-Oct-24 06:18 214 7 gusting 19 12.8
2014-Oct-24 06:08 228 8 gusting 14 13.3
2014-Oct-24 05:58 218 6 gusting 19 13.3
2014-Oct-24 05:48 191 8 gusting 17 13.3
2014-Oct-24 05:38 190 6 gusting 20 13.3
2014-Oct-24 05:28 224 11 gusting 19 13.9
2014-Oct-24 05:18 273 8 gusting 19 13.9
2014-Oct-24 05:08 200 8 gusting 19 14.4
2014-Oct-24 04:58 290 10 gusting 18 14.4
2014-Oct-24 04:48 205 7 gusting 17 14.4
2014-Oct-24 04:38 261 6 gusting 20 14.4
2014-Oct-24 04:28 237 7 gusting 18 14.4
2014-Oct-24 04:18 217 13 gusting 22 14.4
2014-Oct-24 04:08 214 10 gusting 19 15.0
2014-Oct-24 03:58 183 6 gusting 21 14.4
2014-Oct-24 03:48 210 8 gusting 21 15.0
2014-Oct-24 03:38 185 8 gusting 21 15.0
2014-Oct-24 03:28 209 8 gusting 14 14.4
2014-Oct-24 03:18 221 6 gusting 22 15.0
2014-Oct-24 03:08 207 11 gusting 22 15.0
2014-Oct-24 02:58 210 9 gusting 19 16.1
2014-Oct-24 02:48 218 6 gusting 18 16.1
2014-Oct-24 02:38 193 10 gusting 18 15.6
2014-Oct-24 02:28 207 10 gusting 21 16.1
2014-Oct-24 02:18 204 9 gusting 25 15.0
2014-Oct-24 02:08 233 6 gusting 18 15.6
2014-Oct-24 01:58 193 8 gusting 19 15.0
2014-Oct-24 01:48 204 4 gusting 18 15.0
2014-Oct-24 01:38 206 5 gusting 18 15.0
2014-Oct-24 01:28 194 8 gusting 17 15.0
2014-Oct-24 01:18 188 5 gusting 22 14.4
2014-Oct-24 01:08 201 6 gusting 11 14.4
2014-Oct-24 00:58 231 4 gusting 13 14.4
2014-Oct-24 00:48 195 7 gusting 13 14.4
2014-Oct-24 00:38 195 5 gusting 13 15.6
2014-Oct-24 00:28 225 4 gusting 13 16.1
2014-Oct-24 00:18 231 4 gusting 11 16.7
2014-Oct-24 00:08 230 4 gusting 11 17.2
2014-Oct-23 23:58 257 5 gusting 13 17.8
2014-Oct-23 23:48 293 2 gusting 10 17.8
2014-Oct-23 23:38 241 4 gusting 13 16.7
2014-Oct-23 23:28 242 4 gusting 17 16.7
2014-Oct-23 23:18 243 7 gusting 13 17.2
2014-Oct-23 23:08 268 6 gusting 13 16.1
2014-Oct-23 22:58 234 7 gusting 14 16.1
2014-Oct-23 22:48 230 6 gusting 13 18.3
2014-Oct-23 22:38 213 4 gusting 13 17.2
2014-Oct-23 22:28 230 5 gusting 11 15.0
2014-Oct-23 22:18 221 8 gusting 14 16.1
2014-Oct-23 22:08 205 6 gusting 12 16.1
2014-Oct-23 21:58 232 7 gusting 17 16.1
2014-Oct-23 21:48 240 6 gusting 17 16.7
2014-Oct-23 21:38 230 6 gusting 13 17.8
2014-Oct-23 21:28 262 6 gusting 13 17.8
2014-Oct-23 21:18 229 6 gusting 13 18.3
2014-Oct-23 21:08 267 2 gusting 18 17.8
2014-Oct-23 20:58 241 7 gusting 17 17.2
2014-Oct-23 20:48 251 8 gusting 18 16.7
2014-Oct-23 20:38 258 5 gusting 17 16.7
2014-Oct-23 20:28 230 3 gusting 13 15.6
2014-Oct-23 20:18 301 5 gusting 14 15.6
2014-Oct-23 20:08 254 6 gusting 13 15.0
2014-Oct-23 19:58 256 5 gusting 13 14.4
2014-Oct-23 19:48 247 3 gusting 8 13.3
2014-Oct-23 19:38 236 2 gusting 8 13.3
2014-Oct-23 19:28 281 1 gusting 7 12.8
2014-Oct-23 19:18 287 0 gusting 7 12.8
2014-Oct-23 19:08 250 2 gusting 8 12.8
2014-Oct-23 18:58 258 2 gusting 7 12.8
2014-Oct-23 18:48 286 4 gusting 11 13.3
2014-Oct-23 18:28 234 3 gusting 11 13.3
2014-Oct-23 18:18 233 3 gusting 6 12.8
2014-Oct-23 18:08 254 1 gusting 6 12.8
2014-Oct-23 17:58 282 2 gusting 6 12.2
2014-Oct-23 17:48 240 1 gusting 6 12.2
2014-Oct-23 17:38 248 2 gusting 8 12.2
2014-Oct-23 17:28 237 4 gusting 8 12.2
2014-Oct-23 17:18 222 1 gusting 8 12.8
2014-Oct-23 17:08 232 1 gusting 6 12.2
2014-Oct-23 16:58 244 1 gusting 6 12.2
2014-Oct-23 16:48 243 1 gusting 6 12.2
2014-Oct-23 16:38 246 0 gusting 5 12.2
2014-Oct-23 16:28 331 1 gusting 6 12.2
2014-Oct-23 16:18 222 0 gusting 6 12.2
2014-Oct-23 16:08 255 0 gusting 6 12.2
2014-Oct-23 15:58 250 2 gusting 7 12.2
2014-Oct-23 15:48 250 0 gusting 5 12.2
2014-Oct-23 15:38 289 2 gusting 6 12.2
2014-Oct-23 15:28 284 1 gusting 7 12.8
2014-Oct-23 15:18 254 2 gusting 7 12.8
2014-Oct-23 15:08 266 1 gusting 6 12.8
2014-Oct-23 14:58 247 1 gusting 6 12.8
2014-Oct-23 14:48 258 0 gusting 2 12.8
2014-Oct-23 14:38 261 12.8
2014-Oct-23 14:28 259 12.8
2014-Oct-23 14:18 245 12.8
2014-Oct-23 14:08 241 0 gusting 5 12.8
2014-Oct-23 13:58 270 0 gusting 6 12.8
2014-Oct-23 13:48 246 12.8
2014-Oct-23 13:38 256 1 gusting 6 12.8
2014-Oct-23 13:28 194 0 gusting 6 12.8
2014-Oct-23 13:18 238 0 gusting 5 12.8
2014-Oct-23 13:08 262 1 gusting 5 12.8
2014-Oct-23 12:58 269 0 gusting 5 12.8
2014-Oct-23 12:48 282 0 gusting 5 12.8
2014-Oct-23 12:38 258 0 gusting 2 12.2
2014-Oct-23 12:28 249 12.2
2014-Oct-23 12:18 246 12.2
2014-Oct-23 12:08 249 12.2
2014-Oct-23 11:58 246 12.8
2014-Oct-23 11:48 248 12.8
2014-Oct-23 11:38 241 12.8
2014-Oct-23 11:28 244 0 gusting 6 12.8
2014-Oct-23 11:18 252 0 gusting 6 12.8
2014-Oct-23 11:08 270 5 gusting 10 13.3